Погода в Порто-Ново

Бенин     6°28′30″N   2°37′55″E
темп.,
°C
ветер,
м/с
пор.,
м/с
влажн.,
%
обл.,
%
осадки,
мм/ч
давл.,
гПа
погр.,
м
14 апреля, ср
ср1401:00+26ю26875 0.0 1011292
04:00+26ююз24848 0.0 1009121
07:00+26юз23865 0.0 101099
10:00+32юз3354100 0.0 10121294
13:00+34ююз54476 0.0 10111592
16:00+33ю665391 0.0 10091180
19:00+28ю487931 0.0 1009601
22:00+27юз3782100 0.0 1011517
15 апреля, чт
чт1501:00+27юз2685100 0.0 1010256
04:00+26ююз2587100 0.0 1008184
07:00+26юз2486100 0.0 1010126
10:00+31ююз3360100 0.0 10121138
13:00+34ююз4348100 0.0 10091507
16:00+32ююз5455100 0.0 10071100
19:00+28ююз4879100 0.0 1007560
22:00+27юз4881100 0.0 1010585
16 апреля, пт
пт1601:00+27юз478392 0.0 1008422
04:00+27юз4884100 0.0 1006560
07:00+27юз378496 0.0 1008431
10:00+32ююз445842 0.0 10101281
13:00+34ююз545191 0.0 10091573
16:00+33ююз65535 0.0 10071318
19:00+28юз487797 0.0 1007758
22:00+27ююз3783100 3.4 1010323
17 апреля, сб
сб1701:00+26в1186100 5.1 101024
04:00+26юз2586100 0.1 1008146
07:00+26юз498499 0.1 1008524
10:00+31юз456299 0.0 10101293
13:00+30юз456495 0.1 10101165
16:00+32ююз555586 0.1 10081450
19:00+28ю367926 0.1 1008514
22:00+27ююз378675 0.3 1011347
18 апреля, вс
вс1801:00+27юз3885100 0.3 1009492
04:00+26зюз2687100 0.0 1009243
07:00+26зюз2586100 0.1 1010196
10:00+31юз4460100 0.1 10111338
13:00+34юз5448100 0.1 10101611
16:00+33ююз65559 0.0 10081235
19:00+28ю47807 0.0 1009626
22:00+27юз3785100 0.0 1011501